Tracking 29892 objects as of 21-Nov-2024
HD Live streaming from Space Station
objects crossing your sky now

STARLINK-11129

Track STARLINK-11129 now!
10-day predictions
STARLINK-11129 is classified as:


NORAD ID: 60038
Int'l Code: 2024-112A
Perigee: 366.3 km
Apogee: 367.3 km
Inclination: 53.2 °
Period: 91.7 minutes
Semi major axis: 6737 km
RCS: Unknown
Launch date: June 8, 2024
Source: United States (US)
Launch site: AIR FORCE WESTERN TEST RANGE (AFWTR)
Your satellite tracking list
Your tracking list is empty




NASA's NSSDC Master Catalog

Two Line Element Set (TLE):
1 60038U 24112A   24324.63440415 -.00001197  00000-0 -50258-5 0  9994
2 60038  53.1563  88.4552 0000770  93.7703 266.3403 15.69728722 26367
Source of the keplerian elements: AFSPC